Walden, CO

8:06 AM MDT on August 27, 2016 (GMT -0600)
Walden-Jackson Cnty AP, Walde

Weather History for K33V - April, 2014

Change the Weather History Date:

Sunday, April 6, 2014

  Actual Average Record
Temperature  
Mean Temperature 29 °F -  
Max Temperature 37 °F - 57 °F (2015)
Min Temperature 21 °F - 21 °F (2014)
Degree Days  
Heating Degree Days 36    
Month to date heating degree days  
Cooling Degree Days 0    
Month to date cooling degree days  
Moisture  
Dew Point 21 °F    
Average Humidity 73    
Maximum Humidity 93    
Minimum Humidity 44    
Precipitation  
Precipitation 0.00 in - 0.00 in (2016)
Sea Level Pressure  
Sea Level Pressure 29.98 in    
Wind  
Wind Speed 6 mph (SSW)    
Max Wind Speed 18 mph    
Max Gust Speed 23 mph    
Visibility 10 miles    
Events      
T = Trace of Precipitation, MM = Missing Value Source: NWS Daily Summary

Daily Weather History Graph

Daily Weather History Graph

Search for Another Location

Airport or City:

Trip Planner

Search our weather history database for the weather conditions in past years. The results will help you decide how hot, cold, wet, or windy it might be!

Date:

Astronomy

Apr. 06, 2014 Rise Set
Actual Time 6:40 AM MDT 7:35 PM MDT
Civil Twilight 6:12 AM MDT 8:03 PM MDT
Nautical Twilight 5:39 AM MDT 8:36 PM MDT
Astronomical Twilight 5:05 AM MDT 9:10 PM MDT
Moon 11:42 AM MDT (4/6) 1:34 AM MDT (4/6)
Length of Visible Light 13h 50m
Length of Day
12h 54m
Waxing Crescent, 44% of the Moon is Illuminated
Apr 6
Waxing Crescent
Apr 7
First Quarter
Apr 15
Full
Apr 22
Last Quarter
Apr 29
New

Hourly Weather History & Observations

Time (MDT) Temp. Windchill Dew Point Humidity Pressure Visibility Wind Dir Wind Speed Gust Speed Precip Events Conditions
12:16 AM 26.6 °F 22.6 °F 21.2 °F 80% 29.97 in 10.0 mi ESE 3.5 mph - N/A   Clear
12:36 AM 26.6 °F 20.0 °F 23.0 °F 86% 29.97 in 10.0 mi ESE 5.8 mph - N/A   Clear
12:55 AM 23.0 °F 15.8 °F 21.2 °F 93% 29.97 in 10.0 mi ESE 5.8 mph - N/A   Clear
1:16 AM 23.0 °F 14.7 °F 21.2 °F 93% 29.97 in 10.0 mi ESE 6.9 mph - N/A   Clear
1:36 AM 23.0 °F 14.7 °F 19.4 °F 86% 29.97 in 10.0 mi ESE 6.9 mph - N/A   Clear
1:56 AM 23.0 °F 15.8 °F 19.4 °F 86% 29.96 in 10.0 mi ESE 5.8 mph - N/A   Clear
2:16 AM 23.0 °F 15.8 °F 19.4 °F 86% 29.96 in 10.0 mi SE 5.8 mph - N/A   Clear
2:36 AM 21.2 °F 13.6 °F 19.4 °F 93% 29.96 in 10.0 mi ESE 5.8 mph - N/A   Clear
2:56 AM 21.2 °F 13.6 °F 17.6 °F 86% 29.96 in 10.0 mi SE 5.8 mph - N/A   Clear
3:16 AM 21.2 °F - 17.6 °F 86% 29.96 in 10.0 mi Calm Calm - N/A   Clear
3:36 AM 21.2 °F 16.4 °F 17.6 °F 86% 29.96 in 10.0 mi ESE 3.5 mph - N/A   Clear
3:56 AM 21.2 °F 13.6 °F 17.6 °F 86% 29.96 in 10.0 mi East 5.8 mph - N/A   Clear
4:16 AM 21.2 °F 16.4 °F 17.6 °F 86% 29.96 in 10.0 mi SE 3.5 mph - N/A   Mostly Cloudy
4:36 AM 21.2 °F - 19.4 °F 93% 29.96 in 10.0 mi Calm Calm - N/A   Overcast
4:56 AM 21.2 °F 16.4 °F 17.6 °F 86% 29.96 in 10.0 mi ESE 3.5 mph - N/A   Overcast
5:16 AM 23.0 °F - 19.4 °F 86% 29.97 in 10.0 mi Calm Calm - N/A   Overcast
5:36 AM 23.0 °F - 19.4 °F 86% 29.97 in 2.5 mi Calm Calm - N/A   Overcast
5:56 AM 23.0 °F 18.4 °F 19.4 °F 86% 29.96 in 3.0 mi SE 3.5 mph - N/A   Overcast
6:15 AM 23.0 °F 17.0 °F 19.4 °F 86% 29.97 in 10.0 mi SE 4.6 mph - N/A   Overcast
6:36 AM 23.0 °F 15.8 °F 21.2 °F 93% 29.97 in 10.0 mi ESE 5.8 mph - N/A   Overcast
6:55 AM 23.0 °F - 19.4 °F 86% 29.98 in 10.0 mi Calm Calm - N/A   Overcast
7:16 AM 23.0 °F - 21.2 °F 93% 29.98 in 10.0 mi Calm Calm - N/A   Mostly Cloudy
7:36 AM 26.6 °F - 23.0 °F 86% 29.98 in 10.0 mi Calm Calm - N/A   Overcast
7:56 AM 28.4 °F - 24.8 °F 86% 29.99 in 10.0 mi Calm Calm - N/A   Overcast
8:16 AM 28.4 °F 24.6 °F 23.0 °F 80% 29.99 in 10.0 mi South 3.5 mph - N/A   Mostly Cloudy
8:36 AM 30.2 °F 26.7 °F 26.6 °F 86% 29.99 in 10.0 mi South 3.5 mph - N/A   Mostly Cloudy
8:56 AM 30.2 °F 26.7 °F 26.6 °F 86% 29.98 in 10.0 mi South 3.5 mph - N/A   Mostly Cloudy
9:16 AM 30.2 °F 25.4 °F 26.6 °F 86% 29.99 in 10.0 mi South 4.6 mph - N/A   Mostly Cloudy
9:35 AM 30.2 °F 26.7 °F 26.6 °F 86% 29.99 in 10.0 mi SSE 3.5 mph - N/A   Overcast
9:56 AM 30.2 °F 25.4 °F 24.8 °F 80% 29.99 in 2.5 mi South 4.6 mph - N/A   Overcast
10:16 AM 32.0 °F 27.5 °F 23.0 °F 69% 29.98 in 10.0 mi SW 4.6 mph - N/A   Mostly Cloudy
10:36 AM 32.0 °F 25.6 °F 19.4 °F 60% 29.98 in 10.0 mi West 6.9 mph - N/A   Scattered Clouds
10:56 AM 33.8 °F 23.9 °F 19.4 °F 56% 29.98 in 10.0 mi West 15.0 mph 21.9 mph N/A   Scattered Clouds
11:16 AM 35.6 °F 25.9 °F 15.8 °F 44% 29.98 in 10.0 mi WSW 16.1 mph - N/A   Scattered Clouds
11:36 AM 35.6 °F 26.2 °F 17.6 °F 48% 29.98 in 10.0 mi West 15.0 mph 19.6 mph N/A   Clear
11:56 AM 35.6 °F 25.5 °F 17.6 °F 48% 29.98 in 10.0 mi WSW 17.3 mph 21.9 mph N/A   Clear
12:15 PM 33.8 °F 25.3 °F 14.0 °F 44% 29.98 in 10.0 mi West 11.5 mph - N/A   Clear
12:36 PM 33.8 °F 26.4 °F 14.0 °F 44% 29.98 in 10.0 mi WNW 9.2 mph - N/A   Scattered Clouds
12:56 PM 35.6 °F 25.9 °F 17.6 °F 48% 29.97 in 10.0 mi WSW 16.1 mph 19.6 mph N/A   Scattered Clouds
1:16 PM 35.6 °F 25.9 °F 17.6 °F 48% 29.97 in 10.0 mi WSW 16.1 mph 23.0 mph N/A   Clear
1:36 PM 35.6 °F 25.9 °F 17.6 °F 48% 29.97 in 10.0 mi WSW 16.1 mph - N/A   Clear
1:56 PM 35.6 °F 25.2 °F 19.4 °F 52% 29.97 in 10.0 mi WSW 18.4 mph 23.0 mph N/A   Clear
2:16 PM 35.6 °F 27.1 °F 17.6 °F 48% 29.96 in 10.0 mi WSW 12.7 mph 18.4 mph N/A   Clear
2:36 PM 35.6 °F 25.5 °F 19.4 °F 52% 29.96 in 10.0 mi SW 17.3 mph 20.7 mph N/A   Mostly Cloudy
2:56 PM 35.6 °F 26.6 °F 21.2 °F 56% 29.96 in 10.0 mi SW 13.8 mph - N/A   Mostly Cloudy
3:16 PM 35.6 °F 28.0 °F 21.2 °F 56% 29.95 in 10.0 mi SW 10.4 mph - N/A   Scattered Clouds
3:36 PM 35.6 °F 25.5 °F 21.2 °F 56% 29.95 in 10.0 mi SW 17.3 mph - N/A   Scattered Clouds
3:56 PM 37.4 °F 30.3 °F 21.2 °F 52% 29.94 in 10.0 mi WSW 10.4 mph - N/A   Scattered Clouds
4:16 PM 37.4 °F 28.2 °F 23.0 °F 56% 29.94 in 10.0 mi SW 16.1 mph 21.9 mph N/A   Clear
4:36 PM 37.4 °F 30.8 °F 21.2 °F 52% 29.94 in 10.0 mi WSW 9.2 mph - N/A   Scattered Clouds
4:56 PM 37.4 °F 28.2 °F 19.4 °F 48% 29.95 in 10.0 mi WSW 16.1 mph 20.7 mph N/A   Scattered Clouds
5:16 PM 35.6 °F 28.0 °F 21.2 °F 56% 29.95 in 10.0 mi WSW 10.4 mph - N/A   Scattered Clouds
5:36 PM 35.6 °F 27.5 °F 19.4 °F 52% 29.95 in 10.0 mi West 11.5 mph 18.4 mph N/A   Clear
5:56 PM 33.8 °F 24.8 °F 19.4 °F 56% 29.96 in 10.0 mi WSW 12.7 mph - N/A   Scattered Clouds
6:16 PM 35.6 °F 28.6 °F 19.4 °F 52% 29.96 in 10.0 mi West 9.2 mph - N/A   Mostly Cloudy
6:36 PM 33.8 °F 27.7 °F 19.4 °F 56% 29.96 in 10.0 mi West 6.9 mph - N/A   Mostly Cloudy
6:56 PM 33.8 °F 26.4 °F 19.4 °F 56% 29.96 in 10.0 mi West 9.2 mph - N/A   Mostly Cloudy
7:15 PM 33.8 °F 25.3 °F 21.2 °F 60% 29.96 in 10.0 mi West 11.5 mph 17.3 mph N/A   Scattered Clouds
7:35 PM 32.0 °F 24.8 °F 21.2 °F 64% 29.97 in 10.0 mi West 8.1 mph - N/A   Mostly Cloudy
7:56 PM 30.2 °F 20.8 °F 23.0 °F 75% 29.98 in 10.0 mi WSW 11.5 mph - N/A   Mostly Cloudy
8:16 PM 30.2 °F 20.8 °F 23.0 °F 75% 29.99 in 10.0 mi NNW 11.5 mph - N/A   Mostly Cloudy
8:36 PM 30.2 °F 26.7 °F 26.6 °F 86% 29.99 in 10.0 mi North 3.5 mph - N/A   Clear
8:56 PM 30.2 °F 26.7 °F 26.6 °F 86% 30.00 in 10.0 mi SE 3.5 mph - N/A   Scattered Clouds
9:16 PM 30.2 °F 21.3 °F 26.6 °F 86% 30.03 in 7.0 mi NW 10.4 mph - N/A   Mostly Cloudy
9:36 PM 30.2 °F 23.4 °F 28.4 °F 93% 30.02 in 1.0 mi WNW 6.9 mph 10.4 mph N/A   Overcast
9:56 PM 28.4 °F - 24.8 °F 86% 30.02 in 10.0 mi Calm Calm - N/A   Overcast
10:16 PM 28.4 °F - 24.8 °F 86% 30.02 in 10.0 mi Calm Calm - N/A   Mostly Cloudy
10:36 PM 28.4 °F - 24.8 °F 86% 30.03 in 10.0 mi Calm Calm - N/A   Mostly Cloudy
10:55 PM 28.4 °F - 23.0 °F 80% 30.04 in 10.0 mi Calm Calm - N/A   Mostly Cloudy
11:16 PM 26.6 °F 22.6 °F 23.0 °F 86% 30.04 in 10.0 mi SE 3.5 mph - N/A   Overcast
11:36 PM 26.6 °F - 23.0 °F 86% 30.05 in 10.0 mi Calm Calm - N/A   Overcast
11:56 PM 24.8 °F 19.1 °F 21.2 °F 86% 30.04 in 10.0 mi ESE 4.6 mph - N/A   Scattered Clouds